Regional Weather Roundup
Issued by NWS Wakefield, VA

Home | Current Version | Previous Version | Graphics & Text | Print | Product List | Glossary On
Versions: 1 2 3 4 5 6 7 8 9 10 11 12 13 14 15 16 17 18 19 20 21 22 23 24 25 26 27 28
000
ASUS41 KAKQ 202315
RWRAKQ

REGIONAL WEATHER ROUNDUP
NATIONAL WEATHER SERVICE WAKEFIELD VA
600 PM EST MON FEB 20 2017

Note: "fair" indicates few or no clouds below 12,000 feet with no
significant weather and/or obstructions to visibility. * = Denotes
station may not report precipitation (e.g., rain,snow,etc.),
thunder or fog.

VAZ042-051-052>054-056-210000-
NORTHERN VIRGINIA

CITY           SKY/WX    TMP DP  RH WIND       PRES   REMARKS
WASH NATIONAL  MOCLDY    59  34  39 NE9       30.22R
DULLES         PTCLDY    58  29  33 NE7       30.22R
FORT BELVOIR   CLEAR     60  29  30 CALM      30.22R
QUANTICO       CLEAR     60  33  36 NE8       30.23R
FREDERICKSBRG* PTCLDY    63  36  36 NE7       30.20R
STAFFORD*      CLEAR     60  35  38 NE6       30.25R
WARRENTON      CLEAR     60  30  31 NE6       30.20S
CULPEPER*      CLEAR     64  37  38 CALM      30.21R
MANASSAS*      CLEAR     60  33  36 NE5       30.22R
LEESBURG*      CLEAR     61  34  36 NE3       30.23S
WINCHESTER     CLEAR     57  32  38 E5        30.22R
FRONT ROYAL*   CLEAR     61  36  39 E3        30.19S
LURAY*         CLEAR     61  39  44 NE5       30.19S
$$

VAZ048-049-060>072-079>083-210000-
CENTRAL AND SOUTH CENTRAL VIRGINIA

CITY           SKY/WX    TMP DP  RH WIND       PRES   REMARKS
RICHMOND       MOCLDY    62  40  44 NE5       30.20R
CHESTERFIELD*  FAIR      57  30  35 CALM      30.21R
PETERSBURG*    PTCLDY    51  42  71 CALM      30.20R
HANOVER        CLEAR     58  40  51 CALM      30.22R
TAPPAHANNOCK*  CLEAR     58  24  26 NE7       30.23R
QUINTON*       FAIR      61  40  46 CALM      30.20R
CHARLOTTSVILLE PTCLDY    67  33  28 E3        30.19R
GORDONSVILLE*  PTCLDY    59  39  48 CALM      30.19R
ORANGE*        CLEAR     55  37  50 CALM      30.21S
LOUISA*        CLEAR     55  46  71 CALM      30.19R
BUMPASS*       FAIR      59  37  42 S3        30.20R
FARMVILLE*     PTCLDY    64  38  39 CALM      30.19R
CREWE*         FAIR      61  41  47 CALM      30.20R
FORT PICKETT*  FAIR      59  32  36 CALM      30.20R
CHASE CITY*    FAIR      62  39  42 CALM      30.20R
CLARKSVILLE*   FAIR      61  43  51 CALM      30.19S
SOUTH HILL*    CLOUDY    60  42  51 CALM      30.25R
LAWRENCEVILLE* FAIR      61  41  47 CALM      30.20R
EMPORIA*       MOCLDY    55  43  62 CALM      30.21R
$$

VAZ088>098-210000-
SOUTHEAST VIRGINIA

CITY           SKY/WX    TMP DP  RH WIND       PRES   REMARKS
NORFOLK        CLEAR     53  39  59 N5        30.22R
VIRGINIA BEACH PTCLDY    49  33  54 E7        30.22R
NORFOLK NAVAL  MOCLDY    52  38  58 E5        30.23R
WEST POINT*    CLEAR     55  36  47 E7        30.24R
SALUDA*        FAIR      53  39  58 E3        30.22R
NEWPORT NEWS   CLEAR     50  36  58 NE7       30.22R
LANGLEY AFB    CLEAR     49  39  68 NE7       30.22R
FORT EUSTIS    CLEAR     56  33  40 E7        30.20R
WILLIAMSBURG*  CLEAR     55  41  58 E6        30.22S
HR EXEC AP*    FAIR      54  34  47 NE5       30.20R
FRANKLIN*      CLEAR     56  38  52 NE7       30.21R
US460-WAKEFLD  CLEAR     59  40  49 VRB3      30.21R
$$

VAZ020-022-025-037-045-210000-
WEST CENTRAL AND SOUTHWEST VIRGINIA

CITY           SKY/WX    TMP DP  RH WIND       PRES   REMARKS
STAUNTON*      PTCLDY    59  37  44 CALM      30.21R
WAYNESBORO*    PTCLDY    61  31  31 CALM      30.20R
HOT SPRINGS VA CLOUDY    55  19  24 CALM      30.24S
LYNCHBURG      PTCLDY    63  33  32 SE6       30.20S
DANVILLE       PTCLDY    60  41  49 E3        30.19R
SOUTH BOSTON*  FAIR      64  37  37 CALM      30.19S
MARTINSVILLE   PTCLDY    62  37  39 CALM      30.20S
ROANOKE        MOCLDY    66  29  24 SE7       30.20R
BLACKSBURG     PTCLDY    63  29  28 E8        30.22S
DUBLIN*        PTCLDY    64  28  25 E6        30.19S
MARION*        PTCLDY    64  22  20 E3        30.20R
HILLSVILLE*    PTCLDY    60  32  34 CALM      30.19S
RICHLANDS*     FAIR      66  28  24 CALM      30.17S
WISE*          PTCLDY    64  21  19 CALM      30.17S
ABINGDON*      CLOUDY    67  35  30 CALM      30.15S
$$

MDZ021>025-VAZ099-100-210000-
SOUTHERN MARYLAND AND THE DELMARVA PENINSULA

CITY           SKY/WX    TMP DP  RH WIND       PRES   REMARKS
PATUXENT RIVER CLEAR     54  35  48 N5        30.23R
BAY BRIDGE APT CLEAR     55  30  38 N6        30.24R
LEONARDTOWN    CLEAR     54  32  43 CALM      30.25R
DOVER          CLEAR     52  35  53 NW6       30.22R
GEORGETOWN     CLEAR     54  32  43 N3        30.23R
EASTON         PTCLDY    54  32  43 NE6       30.27R
CAMBRIDGE      NOT AVBL
SALISBURY      CLEAR     54  33  45 N7        30.22R
OCEAN CITY     CLEAR     53  30  41 N9        30.23R
WALLOPS ISLAND CLEAR     48  38  68 CALM      30.23R
ACCOMACK*      CLEAR     49  37  64 SE3       30.23R
$$

NCZ012>017-030>032-210000-
NORTH CENTRAL AND EASTERN NORTH CAROLINA

CITY           SKY/WX    TMP DP  RH WIND       PRES   REMARKS
ROANOKE RAPIDS FAIR      63  41  45 CALM      30.19R
RALEIGH        MOCLDY    63  35  35 CALM      30.20R SMOKE
ELIZABETH CITY CLEAR     51  39  63 NE7       30.22R
AHOSKIE*         N/A     60  38  44 CALM      30.20R
EDENTON*       CLEAR     55  41  58 E5        30.22R
CURRITUCK*     CLEAR     51  42  69 E3        30.23R
KILL DEVIL HLS NOT AVBL
MANTEO         CLEAR     49  39  69 NE5       30.23R
CAPE HATTERAS  CLEAR     54  44  69 VRB5      30.20R
TARBORO*       NOT AVBL
GOLDSBORO      PTCLDY    66  38  36 CALM      30.17R
WASHINGTON     PTCLDY    63  40  42 CALM      30.19S
GREENVILLE     PTCLDY    63  37  39 CALM      30.20R
NEW BERN       CLOUDY    59  44  57 SE7       30.20R
WILMINGTON     PTCLDY    61  48  62 E8        30.19R
$$

VAZ048-210000-
ELSEWHERE

CITY           SKY/WX    TMP DP  RH WIND       PRES   REMARKS
HARRISBURG PA  MOCLDY    52  23  32 NE7       30.25R
BALTIMORE      PTCLDY    57  28  33 VRB6      30.23R
ANNAPOLIS      CLEAR     56  33  42 NE7       30.24R
ANDREWS AFB    PTCLDY    55  30  38 E9        30.22R
PHILADELPHIA   PTCLDY    54  17  23 N14G22    30.24R
HENDERSON NC   HAZE      61  35  38 CALM      30.20R VSB 1/4
GREENSBORO     CLOUDY    65  39  38 S7        30.17S
ROCKY MOUNT    PTCLDY    60  43  53 CALM      30.19R
$$

VAZ100-210000-
MARINE

STATION/POSITION TIME  TEMP    WIND        PRES    WAVE   SWELL
                       AIR SEA DIR/SP/G            HT/PER HT/PER
                 (UTC) (F)     (DEG/KT/KT) (MB)    (FT/S) (FT/S)
CAPE MAY NJ      2248   49 42  360/  2/  3 1023.4R
LEWES DE         2248          340/ 11/ 13 1023.6R
OCEAN-CITY-INLET 2248           30/  5/  8 1023.9R
WACHAPREAGUE VA  2248   50 51  130/  2/  3 1023.9R
THOMAS POINT MD  2300   54 43   20/ 12/ 12   N/A
GOOSES REEF MD   2300   50 44  340/  2/  4 1024.3
COVE POINT MD    2248   51     360/  8/  9 1024.1R
SOLOMONS ISLAND  2248          340/  3/  4   N/A
BISHOPS HEAD MD  2248   54 51   30/  5/  8 1023.7R
PINEY POINT MD   2248           30/  2/  2   N/A
POTOMAC MD       2300   51 43  250/  4/  6 1022.8    0
CAMBRIDGE MD     2248   54 43   30/  5/  7 1022.9R
LEWISETTA VA     2248   54 47  350/  2/  2 1023.5R
RAPPAHANNOCK LGT 2248          130/ 10/ 10 1024.2R
YORK RVR RNG VA  2248   51      70/  7/  7 1023.0R
YORKTOWN VA      2248   53 45  110/  6/  8 1023.2R
JAMESTOWN VA     2300   56 49  110/  8/ 10   N/A     0
DOMINION TERM VA 2248   52      70/  7/  9 1023.3R
KIPTOPEKE VA     2248          100/  4/  5   N/A
CHES BAY BRIDGE  2248   50 46  100/  7/  8 1023.4R
CAPE HENRY VA    2248   50     120/  7/  8   N/A
WILLOUBY STN VA  2248   51      70/  6/  6 1024.3R
S CRANEY ISL VA  2248   54      40/  6/  7 1023.0R
CAPE HENRY BUOY  2242      47                N/A     1/ 7
OFFSHORE WE BUOY 2251      48                N/A     1/ 5
64NM E OF VA BCH 2250   52 54   20/ 10/ 12 1022.9R   3/ 5   2/ 5
DUCK PIER NC     2248   49 49   50/  3/  3 1023.0R
44100 DUCK FRF   2205      49                N/A     1/ 5
44056 DUCK FRF   2230      49                N/A     1/ 3
OREGON INLET NC  2242   48 52  360/  4/  5 1023.2R
HATTERAS NC      2248   54 57   20/  9/ 13 1022.4R
DIAMOND SHLS NC  2250   58 65   20/ 17/ 21 1022.1R   3/ 5   2/ 7
CAPE LOOKOUT NC  2300   57      30/ 10/ 11 1022.3R
$$




USA.gov is the U.S. government's official web portal to all federal, state and local government web resources and services.